CST,Max TemperatureF,Mean TemperatureF,Min TemperatureF,Max Dew PointF,MeanDew PointF,Min DewpointF,Max Humidity, Mean Humidity, Min Humidity, Max Sea Level PressureIn, Mean Sea Level PressureIn, Min Sea Level PressureIn, Max VisibilityMiles, Mean VisibilityMiles, Min VisibilityMiles, Max Wind SpeedMPH, Mean Wind SpeedMPH, Max Gust SpeedMPH,PrecipitationIn, CloudCover, Events, WindDirDegrees
2013-1-1,15,-1,-18,12,-2,-21,92,82,72,30.28,30.07,29.89,10,8,2,13,5,18,0.01,6,Snow,215
2013-1-2,23,18,12,19,16,8,92,85,77,30.13,29.92,29.80,10,6,2,17,6,21,0.06,8,Snow,163
2013-1-3,19,12,4,14,7,1,91,82,73,30.21,30.04,29.85,10,10,5,21,10,29,T,4,Snow,254
2013-1-4,26,12,-3,18,10,-6,100,84,68,30.15,30.00,29.86,10,10,9,15,7,21,0.00,1,,278
2013-1-5,18,7,-4,13,4,-6,96,88,79,30.12,30.02,29.91,10,5,0,9,2,10,T,6,Fog,13
2013-1-6,18,5,-9,13,4,-12,95,84,73,30.22,30.09,29.83,10,10,10,12,3,22,T,2,,218
2013-1-7,33,26,18,25,20,13,85,76,66,29.87,29.70,29.56,10,10,10,22,11,35,T,7,,238
2013-1-8,31,22,12,27,23,12,100,86,72,29.93,29.73,29.56,10,7,1,17,7,25,0.04,6,Snow,181
2013-1-9,30,24,18,25,20,14,86,79,61,30.27,29.89,29.56,10,7,1,22,14,37,0.02,8,Snow,259
2013-1-10,48,33,18,31,22,15,89,64,38,30.19,29.92,29.66,10,9,4,21,9,32,0.19,3,Rain,164
2013-1-11,34,27,19,34,30,16,100,95,89,29.66,29.48,29.35,10,3,0,18,5,25,0.59,8,Fog-Rain-Snow,70
2013-1-12,19,11,2,16,4,-3,88,82,76,30.14,29.67,29.34,10,5,1,20,11,24,0.07,8,Snow,325
2013-1-13,2,-4,-11,-4,-9,-16,87,81,75,30.21,30.14,30.01,10,10,10,12,5,14,0.00,3,,283
2013-1-14,9,0,-9,2,-5,-10,90,82,73,30.35,30.28,30.19,10,8,2,14,5,18,T,7,Snow,241
2013-1-15,21,10,-1,16,6,-3,87,74,61,30.22,29.91,29.44,10,9,1,18,8,26,0.02,6,Snow,200
2013-1-16,24,6,-13,20,2,-19,91,70,49,30.31,29.81,29.41,10,8,2,22,13,26,0.04,5,Rain-Snow,292
2013-1-17,2,-9,-20,-9,-16,-23,81,72,62,30.44,30.38,30.32,10,10,7,14,5,17,T,5,,270
2013-1-18,13,0,-13,9,0,-15,87,80,73,30.28,29.92,29.74,10,5,1,12,5,15,0.10,8,Snow,93
2013-1-19,16,4,-9,14,4,-13,92,82,71,30.27,29.76,29.55,10,4,0,25,12,33,0.09,7,Fog-Snow,335
2013-1-20,-3,-10,-17,-13,-17,-24,83,71,58,30.37,30.27,30.14,10,9,2,14,8,20,T,4,Snow,276
2013-1-21,-12,-18,-24,-20,-25,-29,80,67,54,30.33,30.25,30.11,10,8,2,16,8,22,T,5,,274
2013-1-22,-3,-16,-30,-13,-22,-33,86,72,58,30.38,30.32,30.21,10,10,10,12,4,15,T,1,,247
2013-1-23,-5,-16,-27,-9,-17,-31,83,70,57,30.75,30.33,30.01,10,8,2,25,9,32,0.01,6,Snow,302
2013-1-24,2,-17,-36,-4,-13,-32,83,70,57,30.77,30.46,30.09,10,6,0,12,5,15,0.14,5,Snow,132
2013-1-25,9,-7,-24,0,-3,-26,92,81,69,30.38,30.04,29.85,10,6,1,14,6,17,0.12,6,Snow,49
2013-1-26,15,-5,-26,6,-8,-30,86,76,66,30.38,30.28,30.16,10,9,4,13,4,18,T,6,Snow,145
2013-1-27,28,16,4,20,12,1,88,74,60,30.15,30.00,29.83,10,10,10,9,5,12,T,3,,102
2013-1-28,32,29,25,30,27,21,100,89,78,29.88,29.79,29.68,10,5,0,8,3,10,0.34,8,Fog-Snow,146
2013-1-29,31,22,13,30,23,9,100,89,77,29.86,29.68,29.57,10,5,1,18,9,23,0.28,8,Snow,313
2013-1-30,13,9,4,9,2,-1,88,81,73,29.85,29.78,29.69,10,7,2,15,11,20,0.01,8,Snow,328
2013-1-31,4,-7,-19,-2,-11,-24,87,73,59,30.25,30.02,29.71,10,8,2,20,13,24,0.02,6,Snow,310